Home   Weather   Davos   Past weeks

Flag for Switzerland Past Weather in Davos, Graubünden, Switzerland — Yesterday and Last 2 Weeks

Now
44 °F

Quite cool.


Feels Like: 39 °F
Forecast: 6 / 29 °F
Wind: 10 mph from South

Location: Chur

Current Time: Jan 22, 2017 at 3:13:34 pm

Latest Report: Jan 22, 2017 at 2:00 pm


Visibility: N/A

Pressure: 30.19 "Hg (25.02 "Hg at 1540m altitude)

Humidity: 33%

Dew Point: 17 °F

Location of DavosLocation

Past Weather in Davos — Graph

°F

Davos Temperature Yesterday

Maximum temperature yesterday: 38 °F (at 1:00 pm)
Minimum temperature yesterday: 12 °F (at 2:00 am)
Average temperature yesterday: 24 °F

High & Low Weather Summary for the Past Weeks

 TemperatureHumidityPressure
High43 °F (Jan 22, 1:00 pm)95% (Jan 14, 2:00 pm)30.61 "Hg (Jan 14, 2:00 pm)
Low9 °F (Jan 18, 8:00 am)32% (Jan 22, 1:00 pm)29.54 "Hg (Jan 13, 2:00 am)
Average25 °F78%30.27 "Hg
* Reported Jan 7 1:00 pm — Jan 22 1:00 pm, Davos, Weather by CustomWeather, © 2017

Note: Actual official high and low records may vary slightly from our data, if they occured in-between our weather recording intervals... More about our weather records

Advertising

Davos Weather History for the Previous 24 Hours

Scroll right to see more
 ConditionsComfort  
Time TempWeatherWind HumidityBarometerVisibility
1:00 pm
Sun, Jan 22
43 °FQuite cool.10 mph32%30.23 "HgN/A
12:00 pm40 °FQuite cool.12 mph33%30.28 "HgN/A
11:00 am36 °FChilly.13 mph42%30.32 "HgN/A
10:00 am30 °FSunny.9 mph50%30.35 "Hg12 mi
9:00 am27 °FChilly.12 mph58%30.37 "HgN/A
8:00 am31 °FChilly.8 mph49%30.35 "HgN/A
7:00 am28 °FClear.7 mph59%30.36 "Hg3 mi
6:00 am28 °FChilly.7 mph58%30.36 "HgN/A
5:00 am29 °FChilly.10 mph58%30.37 "HgN/A
4:00 am29 °FClear.8 mph58%30.37 "Hg11 mi
3:00 am30 °FChilly.7 mph59%30.38 "HgN/A
2:00 am29 °FChilly.9 mph62%30.39 "HgN/A
1:00 am32 °FClear.10 mph54%30.38 "Hg11 mi
12:00 am30 °FChilly.8 mph63%30.41 "HgN/A
11:00 pm
Sat, Jan 21
31 °FChilly.7 mph61%30.40 "HgN/A
10:00 pm30 °FChilly.8 mph66%30.40 "HgN/A
9:00 pm21 °FCold.3 mph84%30.44 "HgN/A
8:00 pm18 °FCold.2 mph88%30.46 "HgN/A
7:00 pm17 °FFog.No wind88%30.47 "Hg4 mi
6:00 pm20 °FCold.2 mph83%30.45 "HgN/A
5:00 pm22 °FCold.7 mph80%30.44 "HgN/A
4:00 pm25 °FChilly.6 mph73%30.41 "HgN/A
3:00 pm27 °FChilly.9 mph68%30.40 "HgN/A
Weather by CustomWeather, © 2017

See weather overviewHow to use our weather pages